User: anonymous   Login
Location: Oshawa
(43.9000°N, 78.8670°W)
Time: 07:31:17
(UTC-04:00)
Language:

Iridium 46 - Orbit

View from above orbital plane
View from above orbital plane
View from above satellite
View from above satellite

Ground track
Ground track

The orbit data is extracted from the following two-line orbital elements,

1 24905U 97043C   15115.37417196  .00000663  00000-0  22973-3 0  9995
2 24905 086.4005 223.5277 0002259 095.9209 264.2244 14.34217709925485
Epoch (UTC): 25 April 2015 08:58:48
Eccentricity: 0.0002259
inclination: 86.4005°
perigee height: 776 km
apogee height: 779 km
right ascension of ascending node: 223.5277°
argument of perigee: 95.9209°
revolutions per day: 14.34217709
mean anomaly at epoch: 264.2244°
orbit number at epoch: 92548

The dashed part of the orbit path shows where the satellite is in the earth's shadow,  

DLR